This demonstration page uses our WeatherBlox Daily Observations layout. Learn more.

Left ArrowRight Arrow

41.12389, -100.76542

Hourly Observations for July 1, 2018

Temp ( °F °C ) Dew Point ( °F °C ) Humidity (%) Winds ( mph kmh ) Pressure ( in mb ) Visibility ( mi km ) Precip ( " mm )
12:53 am 00:53 Clear 58 14.4 55 12.8 90 90 S 5 7 29.92 1013 10 16 0.00 0.03
1:53 am 01:53 Clear 54 12.2 53 11.7 97 97 WNW 5 7 29.94 1014 10 16 0.00 0.00
2:53 am 02:53 Clear 56 13.3 55 12.8 97 97 NW 7 11 29.95 1014 10 16 0.00 0.00
3:53 am 03:53 Clear 54 12.2 53 11.7 97 97 NW 6 9 29.95 1014 10 16 0.00 0.00
4:53 am 04:53 Clear 52 11.1 52 11.1 100 100 NNW 5 7 29.96 1015 10 16 0.00 0.00
5:53 am 05:53 Clear 52 11.1 52 11.1 100 100 N 3 6 29.97 1015 10 16 0.00 0.00
6:53 am 06:53 Sunny 51 10.6 51 10.6 100 100 NNW 5 7 29.99 1016 10 16 0.00 0.00
7:53 am 07:53 Sunny 58 14.4 56 13.3 93 93 NW 9 15 29.98 1015 10 16 0.00 0.00
8:53 am 08:53 Sunny 62 16.7 58 14.4 86 86 NW 8 13 29.99 1016 10 16 0.00 0.00
9:53 am 09:53 Sunny 66 18.9 59 15 78 78 NW 10 17 29.98 1015 10 16 0.00 0.00
10:53 am 10:53 Sunny 71 21.7 59 15 66 66 NNW 13 20 29.96 1015 10 16 0.00 0.00
11:53 am 11:53 Sunny 74 23.3 58 14.4 57 57 NW 12 19 29.96 1015 10 16 0.00 0.00
12:53 pm 12:53 Sunny 77 25 60 15.6 56 56 NW 12 19 29.95 1014 10 16 0.00 0.00
1:53 pm 13:53 Sunny 79 26.1 58 14.4 49 49 undefined N/A 29.95 1014 10 16 0.00 0.00
2:53 pm 14:53 Sunny 80 26.7 57 13.9 45 45 SSW 5 7 29.94 1014 10 16 0.00 0.00
3:53 pm 15:53 Sunny 82 27.8 58 14.4 44 44 Calm 29.93 1014 10 16 0.00 0.00
4:53 pm 16:53 Sunny 82 27.8 58 14.4 44 44 W 7 11 29.93 1014 10 16 0.00 0.00
5:53 pm 17:53 Sunny 83 28.3 56 13.3 40 40 W 5 7 29.92 1013 10 16 0.00 0.00
6:53 pm 18:53 Sunny 85 29.4 55 12.8 36 36 Calm 29.91 1013 10 16 0.00 0.00
7:53 pm 19:53 Sunny 81 27.2 57 13.9 44 44 SE 6 9 29.90 1013 10 16 0.00 0.00
8:53 pm 20:53 Sunny 73 22.8 63 17.2 71 71 SE 7 11 29.92 1013 10 16 0.00 0.00
9:53 pm 21:53 Clear 67 19.4 63 17.2 87 87 SE 7 11 29.93 1014 10 16 0.00 0.00
10:53 pm 22:53 Clear 65 18.3 63 17.2 93 93 SE 7 11 29.95 1014 10 16 0.00 0.00
11:53 pm 23:53 Clear 63 17.2 62 16.7 97 97 SE 6 9 29.96 1014 10 16 0.00 0.00

Powered by AerisWeather